Vicksburg, LA

7:02 AM CDT on September 25, 2017 (GMT -0500)
Vicksburg Tallulah Regional

Weather History for KTVR - July, 2013

Change the Weather History Date:

Wednesday, July 10, 2013

  Actual Average Record
Temperature  
Mean Temperature 83 °F 81 °F  
Max Temperature 93 °F 92 °F 100 °F (1969)
Min Temperature 73 °F 71 °F 59 °F (1952)
Degree Days  
Heating Degree Days 0 0  
Month to date heating degree days 0 0  
Since 1 June heating degree days 0 0  
Since 1 July heating degree days 0 0  
Cooling Degree Days 18 16  
Month to date cooling degree days 133 160  
Year to date cooling degree days 904 948  
Since 1 June cooling degree days 574 578  
Growing Degree Days 32 (Base 50)    
Moisture  
Dew Point 75 °F    
Average Humidity 75    
Maximum Humidity 94    
Minimum Humidity 56    
Precipitation  
Precipitation 0.00 in 0.11 in 4.16 in (1977)
Month to date precipitation T 1.20  
Year to date precipitation 40.65 30.49  
Sea Level Pressure  
Sea Level Pressure 30.06 in    
Wind  
Wind Speed 3 mph (SW)    
Max Wind Speed 10 mph    
Max Gust Speed 17 mph    
Visibility 10 miles    
Events      
T = Trace of Precipitation, MM = Missing Value Source: NWS Daily Summary

Daily Weather History Graph

Daily Weather History Graph

Search for Another Location

Airport or City:

Trip Planner

Search our weather history database for the weather conditions in past years. The results will help you decide how hot, cold, wet, or windy it might be!

Date:

Astronomy

Jul. 10, 2013 Rise Set
Actual Time 6:05 AM CDT 8:13 PM CDT
Civil Twilight 5:37 AM CDT 8:41 PM CDT
Nautical Twilight 5:03 AM CDT 9:15 PM CDT
Astronomical Twilight 4:26 AM CDT 9:52 PM CDT
Moon 8:16 AM CDT (7/10) 9:35 PM CDT (7/10)
Length of Visible Light 15h 04m
Length of Day
14h 08m
Waxing Crescent, 5% of the Moon is Illuminated
Jul 10
Waxing Crescent
Jul 15
First Quarter
Jul 22
Full
Jul 29
Last Quarter
Aug 6
New

Hourly Weather History & Observations

Time (CDT) Temp. Heat Index Dew Point Humidity Pressure Visibility Wind Dir Wind Speed Gust Speed Precip Events Conditions
12:53 AM 75.9 °F - 73.9 °F 94% 30.09 in 10.0 mi South 3.5 mph - N/A   Clear
1:53 AM 75.9 °F - 73.9 °F 94% 30.09 in 10.0 mi Calm Calm - N/A   Clear
2:53 AM 73.9 °F - 72.0 °F 93% 30.10 in 9.0 mi Calm Calm - N/A   Clear
3:53 AM 75.9 °F - 73.9 °F 94% 30.09 in 10.0 mi Calm Calm - N/A   Clear
4:53 AM 75.9 °F - 73.9 °F 94% 30.10 in 10.0 mi Calm Calm - N/A   Clear
5:53 AM 75.0 °F - 73.0 °F 94% 30.10 in 10.0 mi South 3.5 mph - N/A   Clear
6:53 AM 75.9 °F - 73.9 °F 94% 30.11 in 10.0 mi Calm Calm - N/A   Clear
7:53 AM 79.0 °F - 75.0 °F 88% 30.12 in 10.0 mi WSW 5.8 mph - N/A   Overcast
8:53 AM 82.0 °F 89.4 °F 75.9 °F 82% 30.12 in 10.0 mi Variable 5.8 mph - N/A   Overcast
9:53 AM 82.9 °F 90.8 °F 75.9 °F 79% 30.12 in 10.0 mi West 5.8 mph - N/A   Overcast
10:53 AM 82.9 °F 90.8 °F 75.9 °F 79% 30.13 in 10.0 mi WSW 3.5 mph - N/A   Mostly Cloudy
11:17 AM 84.2 °F 92.3 °F 75.2 °F 74% 30.11 in 10.0 mi WNW 3.5 mph - N/A   Mostly Cloudy
11:46 AM 84.2 °F 92.3 °F 75.2 °F 74% 30.10 in 10.0 mi West 3.5 mph - N/A   Scattered Clouds
11:53 AM 86.0 °F 96.0 °F 75.9 °F 72% 30.12 in 10.0 mi NNW 4.6 mph - N/A   Partly Cloudy
12:53 PM 89.1 °F 99.1 °F 75.0 °F 63% 30.10 in 10.0 mi SW 3.5 mph - N/A   Scattered Clouds
1:53 PM 91.9 °F 103.2 °F 75.0 °F 58% 30.06 in 10.0 mi Variable 3.5 mph - N/A   Clear
2:53 PM 91.9 °F 103.2 °F 75.0 °F 58% 30.03 in 10.0 mi WSW 4.6 mph - N/A   Scattered Clouds
3:53 PM 91.0 °F 100.4 °F 73.9 °F 57% 30.01 in 10.0 mi SSW 3.5 mph - N/A   Clear
4:53 PM 90.0 °F 101.3 °F 75.9 °F 63% 30.00 in 10.0 mi SSW 5.8 mph - N/A   Partly Cloudy
5:53 PM 90.0 °F 100.2 °F 75.0 °F 61% 29.97 in 10.0 mi South 8.1 mph - N/A   Clear
6:53 PM 87.1 °F 96.3 °F 75.0 °F 67% 29.98 in 10.0 mi South 4.6 mph - N/A   Clear
7:53 PM 84.0 °F 92.6 °F 75.9 °F 76% 29.99 in 10.0 mi South 3.5 mph - N/A   Clear
8:53 PM 80.1 °F 85.4 °F 75.9 °F 87% 29.99 in 10.0 mi SSE 3.5 mph - N/A   Clear
9:53 PM 80.1 °F 84.5 °F 73.9 °F 81% 29.99 in 10.0 mi South 3.5 mph - N/A   Clear
10:53 PM 77.0 °F - 75.0 °F 94% 29.98 in 10.0 mi Calm Calm - N/A   Clear
11:53 PM 75.0 °F - 73.9 °F 96% 29.99 in 10.0 mi Calm Calm - N/A   Clear